Regional Weather Roundup
Issued by NWS Northern Indiana

Home | Current Version | Previous Version | Text Only | Print | Product List | Glossary On
Versions: 1 2 3 4 5 6 7 8 9 10 11 12 13 14 15 16 17 18 19 20 21 22 23 24 25 26 27 28 29 30 31 32 33 34 35 36 37 38 39 40 41 42 43 44 45 46 47 48 49 50
000
ASUS43 KIWX 231210
RWRIWX

KIWX WEATHER ROUNDUP
NATIONAL WEATHER SERVICE NORTHERN INDIANA
800 AM EDT TUE SEP 23 2014

NOTE: "FAIR" INDICATES FEW OR NO CLOUDS BELOW 12,000 FEET WITH NO
SIGNIFICANT WEATHER AND/OR OBSTRUCTIONS TO VISIBILITY.

* THESE STATIONS ARE NOT UNDER NWS QUALITY CONTROL. THEY ALSO MAY NOT
  REPORT WEATHER SUCH AS PRECIPITATION OR FOG.

INZ001>027-231300-
NORTHERN INDIANA

CITY           SKY/WX    TMP DP  RH WIND       PRES   REMARKS
GARY*          CLEAR     45  43  93 S3        30.33R
VALPARAISO     CLEAR     43  42  97 CALM      30.34R
6HR MIN TEMP:  42; 6HR MAX TEMP:  48;

MICHIGAN CITY* CLEAR     43  43 100 CALM      30.33R
LAPORTE*       CLEAR     40  40 100 CALM      30.34R
6HR MIN TEMP:  40; 6HR MAX TEMP:  43;

KNOX*          CLEAR     41  39  95 CALM      30.34R
6HR MIN TEMP:  40; 6HR MAX TEMP:  69;

SOUTH BEND     CLEAR     44  40  85 CALM      30.34R
6HR MIN TEMP:  44; 6HR MAX TEMP:  48;

ELKHART*       PTCLDY    41  41 100 CALM      30.34R
GOSHEN         CLEAR    N/A N/A N/A CALM      30.34R
MONTICELLO*    CLEAR     42  42 100 CALM      30.33R
6HR MIN TEMP:  41; 6HR MAX TEMP:  49;

LOGANSPORT*    CLEAR     41  39  93 CALM      30.34R FOG
ROCHESTER*     CLEAR     45  45 100 CALM      30.34R
WARSAW*        CLEAR     41  41 100 CALM      30.34R FOG
ANGOLA*        PTCLDY    39  39 100 CALM      30.34R
FORT WAYNE     CLEAR     43  42  97 CALM      30.35R
6HR MIN TEMP:  41; 6HR MAX TEMP:  46;

HUNTINGTON*    FOG       42  42 100 CALM      30.34R VSB 1/4
6HR MIN TEMP:  41; 6HR MAX TEMP:  45;

PERU/GRISSOM   CLEAR     45  45 100 CALM      30.33S
MARION*        CLEAR     40  40  99 CALM      30.34S
6HR MIN TEMP:  40; 6HR MAX TEMP:  90;


$$
INZ028>050-231300-
CENTRAL INDIANA

CITY           SKY/WX    TMP DP  RH WIND       PRES   REMARKS
LAFAYETTE      CLEAR     43  43 100 CALM      30.34R
6HR MIN TEMP:  42; 6HR MAX TEMP:  47;

KOKOMO*        CLEAR     43  39  87 CALM      30.34R
6HR MIN TEMP:  41; 6HR MAX TEMP:  45;

MUNCIE*        CLEAR     42  40  92 CALM      30.33S FOG
6HR MIN TEMP:  41; 6HR MAX TEMP:  46;

INDIANAPOLIS   CLEAR     48  44  86 CALM      30.33R
6HR MIN TEMP:  47; 6HR MAX TEMP:  51;


$$
MIZ043>046-050>051-056>058-064>065-071>073-077>080-231300-
SOUTHWEST LOWER MICHIGAN

CITY           SKY/WX    TMP DP  RH WIND       PRES   REMARKS
BATTLE CREEK   CLEAR     45  42  89 S3        30.33R
6HR MIN TEMP:  44; 6HR MAX TEMP:  48;

BENTON HARBOR  CLEAR     42  41  96 CALM      30.32R
6HR MIN TEMP:  41; 6HR MAX TEMP:  44;

COLDWATER*     CLEAR     42  41  97 CALM      30.33R
6HR MIN TEMP:  42; 6HR MAX TEMP:  45;

HILLSDALE*     CLEAR     41  41 100 CALM      30.33R
6HR MIN TEMP:  40; 6HR MAX TEMP:  43;

HOLLAND        CLEAR     47  43  86 CALM      30.32R
6HR MIN TEMP:  47; 6HR MAX TEMP:  49;

GRAND RAPIDS   CLEAR     45  42  89 S3        30.31R
6HR MIN TEMP:  45; 6HR MAX TEMP:  48;

KALAMAZOO      CLEAR     43  42  97 CALM      30.33R
6HR MIN TEMP:  42; 6HR MAX TEMP:  46;

STURGIS*       CLEAR     43  41  93 CALM      30.33R
THREE RIVERS*  FAIR      43  42  97 CALM      30.34R FOG
6HR MIN TEMP:  43; 6HR MAX TEMP:  46;


$$
OHZ001>008-015>018-024>025-231300-
NORTHWEST OHIO

CITY           SKY/WX    TMP DP  RH WIND       PRES   REMARKS
WAUSEON*       FOG       41  41 100 W3        30.34R VSB 1/2
DEFIANCE       CLEAR      1 N/A N/A CALM      30.35R
FINDLAY        CLEAR     45  42  89 CALM      30.33R
6HR MIN TEMP:  42; 6HR MAX TEMP:  46;

TOLEDO EXPRESS CLEAR     40  39  97 CALM      30.34R
6HR MIN TEMP:  40; 6HR MAX TEMP:  44;

TOLEDO METCALF CLEAR     45  41  86 CALM      30.35R
6HR MIN TEMP:  43; 6HR MAX TEMP:  49;

LIMA           CLEAR     43  41  93 CALM      30.33R
6HR MIN TEMP:  42; 6HR MAX TEMP:  46;


$$
AND FOR LAKE MICHIGAN COASTAL AND OPEN LAKE BUOY OBSERVATIONS

STATION/POSITION TEMP    WIND        PRES    VSBY  WAVE
                 AIR SEA DIR/SP/G                  HT/PER
                 (F)     (DEG/KT/KT) (MB)    (MI)  (FT/S)
CALUMET HARBOR    51     220/  4/  6 1025.4R
SAINT JOSEPH      51      CALM  /  4 1026.8S
SOUTH LAKE BUOY   60 62  230/ 10/ 12 1026.2R         2/ 4
4 MI NW BRIDGMAN  58 64  190/  8/ 10   N/A           1/ 2
MICHIGAN CITY     56 63  200/  8/ 10   N/A           1/ 2

$$
&&


USA.gov is the U.S. government's official web portal to all federal, state and local government web resources and services.